Location: Corcelles
(46.1547°N, 4.7234°E)
Time: 08:34:21
(UTC+00:00)

Cosmos 1666 Rocket - Pass Details

Date: 14 July 2020
Orbit: 603 x 633 km, 82.5° (Epoch: 14 August)

Event Time Altitude Azimuth Distance (km) Brightness Sun altitude
Exits shadow 00:23:49 47° 248° (WSW) 815 3.9 -21.7°
Maximum altitude 00:24:30 53° 282° (WNW) 761 3.9 -21.7°
Drops below altitude 10° 00:28:47 10° 360° (N) 1,978 7.3 -21.6°
Sets 00:31:03 0° 5° (N) 2,883 8.5 -21.5°
